This demonstration page uses our WeatherBlox Daily Observations layout. Learn more.

Left ArrowRight Arrow

Hourly Observations for August 5, 2021

Temp ( °F °C ) Dew Point ( °F °C ) Humidity (%) Winds ( mph kmh ) Pressure ( in mb ) Visibility ( mi km ) Precip ( " mm )
12:53 am 00:53 Clear with Smoke 76 24.4 49 9.4 39 39 Calm 29.82 1010 10 16 0.00 0.00
1:53 am 01:53 Clear with Smoke 73 22.8 45 7.2 37 37 E 3 6 29.82 1010 10 16 0.00 0.00
2:53 am 02:53 Clear with Smoke 70 21.1 45 7.2 41 41 Calm 29.83 1010 10 16 0.00 0.00
3:53 am 03:53 Clear with Smoke 67 19.4 44 6.7 44 44 Calm 29.83 1010 10 16 0.00 0.00
4:53 am 04:53 Clear with Smoke 67 19.4 47 8.3 49 49 S 6 9 29.85 1011 10 16 0.00 0.00
5:53 am 05:53 Clear with Smoke 64 17.8 45 7.2 50 50 Calm 29.88 1012 10 16 0.00 0.00
6:53 am 06:53 Sunny with Smoke 66 18.9 47 8.3 50 50 Calm 29.90 1012 10 16 0.00 0.00
7:53 am 07:53 Sunny with Smoke 68 20 48 8.9 49 49 VRB 3 6 29.91 1013 10 16 0.00 0.00
8:53 am 08:53 Sunny with Smoke 74 23.3 47 8.3 38 38 S 8 13 29.92 1013 10 16 0.00 0.00
9:09 am 09:09 Partly Cloudy with Smoke 75 23.9 48 8.9 39 39 SW 6 9 29.92 1013 9 14 0.00 0.00
1:53 pm 13:53 Sunny 85 29.4 41 5 21 21 SE 7 11 29.91 1013 10 16 0.00 0.00
2:53 pm 14:53 Sunny 85 29.4 43 6.1 23 23 Calm 29.90 1013 10 16 0.00 0.00
3:53 pm 15:53 Sunny 88 31.1 43 6.1 21 21 S 6 9 29.88 1012 10 16 0.00 0.00
4:53 pm 16:53 Sunny 87 30.6 44 6.7 22 22 VRB 3 6 29.87 1012 10 16 0.00 0.00
5:53 pm 17:53 Sunny 88 31.1 42 5.6 20 20 Calm 29.88 1012 10 16 0.00 0.00
6:53 pm 18:53 Mostly Sunny 88 31.1 42 5.6 20 20 Calm 29.88 1012 10 16 0.00 0.00
7:53 pm 19:53 Cloudy 85 29.4 44 6.7 24 24 N 3 6 29.88 1012 10 16 0.00 0.00
8:53 pm 20:53 Cloudy 79 26.1 43 6.1 28 28 Calm 29.90 1013 10 16 0.00 0.00
9:53 pm 21:53 Cloudy 77 25 44 6.7 31 31 Calm 29.92 1013 10 16 0.00 0.00
10:53 pm 22:53 Cloudy 75 23.9 44 6.7 33 33 NNE 5 7 29.92 1013 10 16 0.00 0.00
11:53 pm 23:53 Cloudy 72 22.2 44 6.7 37 37 Calm 29.92 1013 10 16 0.00 0.00

Powered by AerisWeather